User: anonymous   Login
Location: Unspecified
(0.0000°N, 0.0000°E)
Time: 22:08:39
(UTC+00:00)
Language:

IRAZU - Orbit

View from above orbital plane
View from above orbital plane
View from above satellite
View from above satellite

Ground track
Ground track

The orbit data is extracted from the following two-line orbital elements,

1 43468U 98067NR  18343.91670908 +.00016506 +00000-0 +20037-3 0  9997
2 43468 051.6376 217.2160 0001571 118.1594 241.9558 15.60742486133089
Epoch (UTC): 09 December 2018 22:00:03
Eccentricity: 0.0001571
inclination: 51.6376°
perigee height: 384 km
apogee height: 386 km
right ascension of ascending node: 217.2160°
argument of perigee: 118.1594°
revolutions per day: 15.60742486
mean anomaly at epoch: 241.9558°
orbit number at epoch: 13308

The dashed part of the orbit path shows where the satellite is in the earth's shadow,  

DLR